Skip Page Navigation
NASA JPL Caltech
NASA Logo - Jet Propulsion Laboratory + View the NASA Portal
+ Near-Earth Object (NEO) Program
Search JPL
JPL Home Earth Solar System Stars & Galaxies Technology
JPL Solar System Dynamics
BODIES ORBITS EPHEMERIDES TOOLS PHYSICAL DATA DISCOVERY FAQ SITE MAP
JPL Small-Body Database Browser
Search: [ help ]  
9693 Bleeker (6547 P-L)
Classification: Main-belt Asteroid          SPK-ID: 2009693
Ephemeris | Orbit Diagram | Orbital Elements | Physical Parameters | Discovery Circumstances ]

[ show orbit diagram ]
Orbital Elements at Epoch 2456400.5 (2013-Apr-18.0) TDB
Reference: JPL 1 (heliocentric ecliptic J2000)
 Element Value Uncertainty (1-sigma)   Units 
e .2078952818011453 7.4508e-08  
a 2.427851437109019 8.3903e-09 AU
q 1.923112578419924 1.8095e-07 AU
i 3.087315809261197 8.0188e-06 deg
node 38.71808753582273 0.00012342 deg
peri 320.1062122406663 0.00012499 deg
M 323.330035348316 2.5127e-05 deg
tp 2456541.247140362845
(2013-Sep-05.74714036)
9.6881e-05 JED
period 1381.756732298822
3.78
7.1627e-06
1.961e-08
d
yr
n .2605379019221927 1.3506e-09 deg/d
Q 2.932590295798114 1.0135e-08 AU
  Orbit Determination Parameters
   # obs. used (total)      874  
   data-arc span      19198 days (52.56 yr)  
   first obs. used      1960-09-24  
   last obs. used      2013-04-17  
   planetary ephem.      DE405  
   SB-pert. ephem.      SB405-CPV-2  
   condition code      0  
   fit RMS      .54924  
   data source      ORB  
   producer      Otto Matic  
   solution date      2013-Apr-29 13:36:52  

Additional Information
 Earth MOID = .920365 AU 
 T_jup = 3.478 
[ show covariance matrix ]

Ephemeris | Orbit Diagram | Orbital Elements | Physical Parameters | Discovery Circumstances ]

Physical Parameter Table
Parameter Symbol Value Units Sigma Reference Notes
absolute magnitude H 14.2 mag n/a PDS3 (MPC 32912)  

9693 Bleeker           Discovered 1960 Sept. 24 by C. J. van Houten and I. van Houten-Groeneveld on Palomar Schmidt plates taken by T. Gehrels.
Johan Bleeker (b. 1942), director of the Durch Space Research Organization and professor of space physics at Utrecht University, wrote many papers on x-ray astrophysics. The codiscoverer of the diffuse x-ray background of the sky, he was also the first author of discovery papers on the primary electrons in cosmic rays.
NOTE: some special characters may not display properly (any characters within {} are an attempt to place the proper accent above a character)
Reference: 20001111/MPCPages.arcLast Updated: 2013-03-29

Alternate Designations
 6547 P-L = 1979 SW9 = 1979 VJ 
Ephemeris | Orbit Diagram | Orbital Elements | Physical Parameters | Discovery Circumstances ]
ABOUT SSD CREDITS/AWARDS PRIVACY/COPYRIGHT GLOSSARY LINKS
FirstGov 2013-May-26 02:21 UT
(server date/time)  
NASA Home Page
Site Manager:   Donald K. Yeomans
Webmaster  Alan B. Chamberlin